AO-07 1 07530U 74089B 24088.56248778 -.00000043 00000-0 22132-4 0 9994 2 07530 101.9770 82.4620 0011896 237.4421 238.6205 12.53673567258930 UO-11 1 14781U 84021B 24088.51578749 .00002811 00000-0 32541-3 0 9994 2 14781 97.6979 60.2734 0007791 355.2766 4.8375 14.86266809136502 AO-16 1 20439U 90005D 24088.51068090 .00000484 00000-0 19241-3 0 9999 2 20439 98.9017 91.3755 0011874 88.5449 36.5026 14.33314291785770 LO-19 1 20442U 90005G 24088.53689798 .00000487 00000-0 19284-3 0 9999 2 20442 98.8794 76.7034 0012753 64.6400 295.6103 14.33472653786289 AO-27 1 22825U 93061C 24088.39981697 .00000308 00000-0 13578-3 0 9990 2 22825 98.7989 140.2978 0007623 320.9284 39.1347 14.30448808591066 IO-26 1 22826U 93061D 24088.39977140 .00000345 00000-0 14912-3 0 9993 2 22826 98.7935 140.1599 0007968 304.0569 55.9857 14.30825295591349 FO-29 1 24278U 96046B 24088.60036058 .00000080 00000-0 11579-3 0 9992 2 24278 98.5737 33.8405 0350846 37.1317 325.3547 13.53178127363532 NOAA-15 1 25338U 98030A 24088.85796906 .00000370 00000-0 17138-3 0 9996 2 25338 98.5779 117.6338 0010151 193.2409 166.8507 14.26523402345984 GO-32 1 25397U 98043D 24088.85694895 .00000275 00000-0 13982-3 0 9996 2 25397 98.9136 54.4190 0002115 57.1445 302.9937 14.24007994336209 ISS 1 25544U 98067A 24088.85391490 .00032976 00000-0 58960-3 0 9999 2 25544 51.6414 353.6493 0004927 15.0574 100.3428 15.49689875446082 NO-44 1 26931U 01043C 24088.49305086 .00000510 00000-0 22447-3 0 9994 2 26931 67.0515 180.0100 0005727 280.3316 79.7140 14.31162036174402 SO-50 1 27607U 02058C 24088.45402086 .00001983 00000-0 28723-3 0 9994 2 27607 64.5534 109.6145 0033957 149.6673 210.6406 14.78542251144388 CO-55 1 27844U 03031E 24088.52276609 .00000860 00000-0 39983-3 0 9990 2 27844 98.6804 96.6745 0010180 25.7475 334.4208 14.23139380 76314 CO-57 1 27848U 03031J 24088.49602983 .00000753 00000-0 35610-3 0 9992 2 27848 98.6835 96.9370 0010361 40.7068 319.4882 14.22598605 76066 RS-22 1 27939U 03042A 24088.89709102 .00002456 00000-0 42214-3 0 9990 2 27939 98.2796 243.8973 0011299 317.5702 195.5592 14.69541643 96482 NOAA-18 1 28654U 05018A 24088.77793875 .00000428 00000-0 25240-3 0 9994 2 28654 98.8776 166.4051 0013160 292.1136 67.8639 14.13155384971900 CO-58 1 28895U 05043F 24088.57668936 .00003342 00000-0 60210-3 0 9990 2 28895 98.1879 224.3806 0014969 250.1149 109.8442 14.67152166982637 CO-65 1 32785U 08021C 24088.49403651 .00006805 00000-0 61848-3 0 9999 2 32785 97.7473 54.6101 0009984 229.5310 130.5041 14.95525655863416 AAUSAT2 1 32788U 08021F 24088.48536610 .00023101 00000-0 12999-2 0 9993 2 32788 97.5922 68.7722 0009028 95.1050 265.1211 15.13221664866105 CO-66 1 32791U 08021J 24088.43770788 .00010978 00000-0 84509-3 0 9993 2 32791 97.6876 60.2216 0005536 175.1888 184.9390 15.01826408864390 RS-30 1 32953U 08025A 24088.83243101 .00000042 00000-0 23160-3 0 9992 2 32953 82.5022 139.4719 0018026 280.1385 79.7662 12.43137828719149 PRISM 1 33493U 09002B 24088.06778045 .00021489 00000-0 11446-2 0 9994 2 33493 98.2160 128.9358 0014060 161.7145 198.4594 15.15155632826743 NOAA-19 1 33591U 09005A 24088.85981341 .00000393 00000-0 23504-3 0 9998 2 33591 99.0567 143.7806 0014399 155.3974 204.7887 14.12956981780285 SRMSAT 1 37841U 11058D 24088.23896775 .00000660 00000-0 21665-3 0 9992 2 37841 19.9718 286.3636 0011790 284.9085 229.1053 14.11064739643111 HRBE 1 37855U 11061F 24088.63083024 .00118576 00000-0 15784-2 0 9990 2 37855 101.6866 222.9397 0070470 232.9650 126.5129 15.54771518680427 RS-40 1 38735U 12041C 24088.82368649 .00000031 00000-0 15330-3 0 9991 2 38735 82.4771 219.9669 0017469 37.3911 322.8380 12.42605483529298 ZACUBE-1 1 39417U 13066B 24088.46259848 .00006821 00000-0 72864-3 0 9995 2 39417 97.7271 46.3533 0053624 68.2042 292.4869 14.88038181559578 Delfi-N3xt 1 39428U 13066N 24088.53934709 .00010436 00000-0 13724-2 0 9997 2 39428 97.8394 9.0922 0103339 350.9879 8.9473 14.76665061554186 GOMX-1 1 39430U 13066Q 24088.87236592 .00002963 00000-0 50122-3 0 9992 2 39430 97.7441 328.1026 0142172 147.5405 213.4642 14.63551961551293 LO-74 1 39440U 13066AA 24088.60668643 .00004912 00000-0 59456-3 0 9995 2 39440 97.8072 34.1158 0071328 175.9200 184.2610 14.82293427556394 AO-73 1 39444U 13066AE 24088.83673283 .00010611 00000-0 10627-2 0 9999 2 39444 97.7127 49.6553 0051088 49.7892 310.7780 14.90578866558729 SPROUT 1 39770U 14029E 24088.82881845 .00086258 00000-0 32293-2 0 9998 2 39770 98.0080 234.3568 0000489 338.5188 21.6029 15.26940342535314 DTUSAT-2 1 40030U 14033W 24088.57680770 .00008160 00000-0 71469-3 0 9995 2 40030 98.0004 39.0191 0011554 66.7757 293.4679 14.96912329530630 EO-80 1 40032U 14033Y 24088.41436952 .00009227 00000-0 80618-3 0 9992 2 40032 98.0010 38.8653 0012281 70.2594 289.9950 14.96961856530581 HODOYOSHI-1 1 40299U 14070B 24088.85037921 .00023884 00000-0 53164-3 0 9990 2 40299 97.1490 150.1581 0007054 335.4275 24.6636 15.43600360522714 XW-2C 1 40906U 15049H 24088.87063396 .00027007 00000-0 73813-3 0 9993 2 40906 97.4860 103.8845 0007964 216.6980 143.3719 15.37330960472112 XW-2D 1 40907U 15049J 24088.82297196 .00038193 00000-0 88200-3 0 9990 2 40907 97.4810 105.6399 0007057 199.8650 160.2323 15.42410303472284 LILACSAT-2 1 40908U 15049K 24088.83830867 .00011222 00000-0 45852-3 0 9990 2 40908 97.5283 97.0648 0010715 272.0334 87.9676 15.24495658471246 XW-2F 1 40910U 15049M 24087.76033445 .01532157 16123-2 18978-2 0 9990 2 40910 97.4159 117.6104 0006717 195.2223 164.8859 16.08197874473237 XW-2B 1 40911U 15049N 24088.81632274 .00036749 00000-0 86388-3 0 9994 2 40911 97.4787 105.8353 0007068 202.4303 157.6635 15.41883399472152 IO-86 1 40931U 15052B 24006.28856983 .00001263 00000-0 84248-4 0 9993 2 40931 6.0004 76.3799 0013541 291.8204 68.0484 14.77555377447321 ChubuSat-2 1 41338U 16012B 24088.64748707 .00006718 00000-0 42981-3 0 9993 2 41338 31.0010 188.7327 0011930 147.9629 212.1735 15.07124543445437 ChubuSat-3 1 41339U 16012C 24088.56292184 .00006230 00000-0 40316-3 0 9997 2 41339 31.0075 187.3072 0011857 152.7567 207.3694 15.06674210445311 Horyu-4 1 41340U 16012D 24088.50815016 .00013904 00000-0 74091-3 0 9991 2 41340 31.0014 140.4441 0010745 229.4609 130.5095 15.13941514445909 e-st@r-II 1 41459U 16025D 24088.76627431 .00239397 00000-0 17051-2 0 9994 2 41459 98.1347 330.0899 0044044 160.7703 199.5233 15.71808450436979 Lapan A3 1 41603U 16040E 24088.85563656 .00004496 00000-0 18534-3 0 9998 2 41603 97.1483 106.2328 0013089 34.3142 325.8940 15.24483914430984 Pratham 1 41783U 16059A 24088.79683063 .00001364 00000-0 26348-3 0 9998 2 41783 97.8437 111.8958 0031118 275.7872 83.9784 14.64635407400775 CAS-2T 1 41847U 16066G 24088.14270585 .00002262 00000-0 33715-3 0 9991 2 41847 98.4659 160.0394 0356255 61.4687 302.1882 14.40934147387827 CAS-4B 1 42759U 17034B 24088.83191341 .00018003 00000-0 71509-3 0 9991 2 42759 43.0118 319.5907 0011956 185.4543 174.6179 15.24966867375129 CAS-4A 1 42761U 17034D 24088.90535245 .00017106 00000-0 67774-3 0 9999 2 42761 43.0145 317.5841 0010943 191.2656 168.7952 15.25091246375148 NIUSat 1 42766U 17036B 24088.81489958 .00308372 00000-0 14861-2 0 9991 2 42766 97.1076 123.7055 0006137 141.6742 218.4964 15.81782892376946 Aalto 1 1 42775U 17036L 24088.49917381 .00060447 00000-0 91301-3 0 9994 2 42775 97.1169 117.9185 0008210 133.7473 226.4462 15.54499396376525 URSA MAIOR 1 42776U 17036M 24088.81057340 .00098657 00000-0 10823-2 0 9994 2 42776 97.1145 121.2150 0007281 129.3558 230.8348 15.62880967376756 Max Valier Sat 1 42778U 17036P 24088.82115994 .00092293 00000-0 99059-3 0 9996 2 42778 97.1149 125.3217 0007259 133.9480 226.2379 15.63464584376938 D-SAT 1 42794U 17036AF 24088.49114249 .00010686 00000-0 77390-3 0 9999 2 42794 97.4915 73.3365 0110528 60.9674 300.2570 14.99288280368622 TechnoSat 1 42829U 17042E 24088.79573507 .00005233 00000-0 47321-3 0 9997 2 42829 97.3834 274.4185 0012296 351.8912 8.2109 14.95780929365155 AO-91 1 43017U 17073E 24088.53165925 .00009790 00000-0 62804-3 0 9999 2 43017 97.5898 326.9356 0215885 202.6056 156.5545 14.91415163343632 TianYi 2 1 43155U 18008A 24088.82678085 .00062838 00000-0 12915-2 0 9998 2 43155 97.2494 142.1024 0006996 15.9076 344.2392 15.45748170342432 Zhou Enlai 1 43156U 18008B 24088.82385788 .00087292 00000-0 15237-2 0 9995 2 43156 97.2534 143.1693 0004711 14.4083 345.7303 15.50375133342413 TianYi 6 1 43158U 18008D 24088.38238245 .00043304 00000-0 11377-2 0 9990 2 43158 97.2644 137.2713 0007233 32.5763 327.5928 15.38455946342016 S-Net D 1 43186U 18014G 24088.48471010 .00006860 00000-0 50793-3 0 9990 2 43186 97.5960 351.7825 0009511 282.1252 77.8908 15.03423852336373 S-Net B 1 43187U 18014H 24088.22038812 .00006635 00000-0 49152-3 0 9999 2 43187 97.5963 351.4667 0010336 278.0679 81.9373 15.03413164336335 S-Net A 1 43188U 18014J 24088.28624064 .00006740 00000-0 49913-3 0 9998 2 43188 97.5969 351.6378 0010219 278.5775 81.4293 15.03421630336349 S-Net C 1 43189U 18014K 24088.48883848 .00006440 00000-0 47697-3 0 9992 2 43189 97.5983 351.7678 0011923 268.9013 91.0846 15.03418486334929 Changshagaoxin 1 43669U 18083H 24088.70070639 .00208699 00000-0 15858-2 0 9995 2 43669 97.3371 124.8960 0005201 159.8686 200.2783 15.71669552301093 Ten-Koh 1 43677U 18084G 24088.39049389 .00003819 00000-0 35235-3 0 9997 2 43677 98.0513 239.6516 0013342 286.3617 73.6136 14.95215641294642 PO-101 1 43678U 18084H 24088.82719118 .00002858 00000-0 26823-3 0 9995 2 43678 98.0600 244.5385 0008215 299.7768 60.2634 14.94801621294910 QO-100 1 43700U 18090A 24088.53313431 .00000154 00000-0 00000-0 0 9997 2 43700 0.0187 166.2584 0001367 234.4159 3.4822 1.00272414 19548 MinXSS-2 1 43758U 18099A 24088.41131181 .00010388 00000-0 69834-3 0 9999 2 43758 97.5615 152.1073 0016955 230.9587 129.0132 15.06830725290614 AO-95 1 43770U 18099N 24088.12284991 .00008793 00000-0 63746-3 0 9992 2 43770 97.5534 147.7628 0013399 277.9021 82.0684 15.04101139290378 RANGE-B 1 43772U 18099Q 24088.40910775 .00012271 00000-0 81289-3 0 9999 2 43772 97.5317 151.2893 0005960 176.6286 183.4983 15.07434240290548 RANGE-A 1 43773U 18099R 24088.41976817 .00005622 00000-0 44061-3 0 9999 2 43773 97.5162 144.2623 0014951 253.3246 106.6338 15.01285486290315 MOVE-II 1 43780U 18099Y 24088.45557169 .00018298 00000-0 10643-2 0 9997 2 43780 97.5296 152.3901 0006542 248.0409 112.0127 15.12096465290719 SNUSat 2 1 43782U 18099AA 24088.42915365 .00007974 00000-0 58855-3 0 9999 2 43782 97.5243 147.6398 0014782 211.7751 148.2584 15.03436481290435 SnugLite 1 43784U 18099AC 24088.43872092 .00009425 00000-0 67787-3 0 9998 2 43784 97.5048 147.0484 0004350 213.6031 146.4920 15.04439175290496 ITASat 1 1 43786U 18099AE 24088.13567766 .00006210 00000-0 46604-3 0 9990 2 43786 97.5180 147.7335 0016328 267.3001 92.6355 15.02879384290399 EAGLET 1 1 43790U 18099AJ 24088.44797379 .00006045 00000-0 46729-3 0 9998 2 43790 97.5360 148.4729 0014222 249.3443 110.6257 15.01787330290154 ESEO 1 43792U 18099AL 24088.85577686 .00002704 00000-0 22694-3 0 9995 2 43792 97.5293 146.2180 0010207 239.2579 120.7639 14.99122068290169 CSIM 1 43793U 18099AM 24088.43932439 .00017135 00000-0 99630-3 0 9999 2 43793 97.5367 154.0301 0013167 225.8819 134.1329 15.12067104290564 JO-97 1 43803U 18099AX 24088.13020336 .00009431 00000-0 65952-3 0 9992 2 43803 97.5280 148.6807 0010060 213.6868 146.3720 15.05462281290497 Suomi 100 1 43804U 18099AY 24088.61017103 .00007864 00000-0 55882-3 0 9993 2 43804 97.5360 148.9579 0015909 211.5043 148.5232 15.04857279290558 CHOMPTT 1 43855U 18104G 24088.65344655 .00190210 00000-0 11565-2 0 9992 2 43855 85.0137 327.9990 0002072 355.4773 4.6479 15.76945706294875 ISAT 1 43879U 18111D 24088.46184501 .00012340 00000-0 80128-3 0 9996 2 43879 97.6262 354.6713 0011305 276.0339 83.9600 15.08139677287240 UWE-4 1 43880U 18111E 24088.53656354 .00011581 00000-0 76574-3 0 9992 2 43880 97.6177 354.9526 0015148 285.9935 73.9624 15.07441888287279 Sparrow 1 43881U 18111F 24088.52540672 .00012107 00000-0 77687-3 0 9998 2 43881 97.6337 356.4891 0009049 326.7806 33.2854 15.08598336287315 AISTechSat 3 1 44103U 19018AB 24088.69112725 .00389314 57535-4 13870-2 0 9994 2 44103 97.1903 155.4419 0005419 252.3953 107.6728 15.88867583278894 AISat 1 1 44104U 19018AC 24088.56334195 .00094879 00000-0 70090-3 0 9996 2 44104 97.3613 194.2158 0022157 278.9081 80.9674 15.72353352280118 Prox-1 1 44339U 19036A 24088.50649920 .00012384 00000-0 22301-2 0 9997 2 44339 24.0009 23.6380 0009270 182.7847 177.2596 14.64794133253398 SONATE 1 44400U 19038Q 24088.48484385 .00021881 00000-0 74562-3 0 9996 2 44400 97.7126 79.2295 0018471 39.5165 320.7418 15.30236277261729 BeeSat 9 1 44412U 19038AC 24088.26127260 .00141084 00000-0 16306-2 0 9990 2 44412 97.6857 88.6961 0007522 33.3213 326.8516 15.61382927262070 JAISAT-1 1 44419U 19038F 24088.52844845 .00128248 00000-0 15277-2 0 9994 2 44419 97.6839 90.0358 0007266 32.2612 327.9088 15.60638067262490 Taurus 1 1 44530U 19059C 24088.82512895 .00007266 00000-0 17396-2 0 9991 2 44530 98.5660 207.0080 0011114 296.4328 63.5727 14.53802912240080 Duchifat 3 1 44854U 19089C 24088.64843114 .00016316 00000-0 89841-3 0 9995 2 44854 36.9579 176.8605 0008404 150.7415 209.3803 15.13347560235985 OPS-SAT 1 44878U 19092F 24088.51914361 .00146970 00000-0 14453-2 0 9990 2 44878 97.4492 290.3111 0004792 186.1025 174.0177 15.65525583237857 TO-108 1 44881U 19093C 24088.84842014 .00002114 00000-0 26356-3 0 9993 2 44881 97.8318 167.1879 0013597 221.4504 138.5679 14.83418137231134 FloripaSat 1 1 44885U 19093G 24088.81161906 .00006062 00000-0 64942-3 0 9997 2 44885 97.8420 172.0728 0012521 216.4762 143.5603 14.88984865231400 RS-44 1 44909U 19096E 24088.42835880 .00000050 00000-0 16096-3 0 9991 2 44909 82.5238 158.4365 0216520 239.8429 118.1063 12.79728081198644 BY70-2 1 45857U 20042B 24088.81253260 .00071866 00000-0 40772-2 0 9996 2 45857 97.9093 178.3548 0006356 152.3982 207.7587 15.12634050202337 UPMSat 2 1 46276U 20061E 24088.45338856 .00017118 00000-0 57683-3 0 9998 2 46276 97.3052 155.7991 0002272 83.6413 276.5087 15.30804647197817 AmicalSat 1 46287U 20061R 24088.43842722 .00029069 00000-0 95513-3 0 9992 2 46287 97.3577 155.9914 0002979 147.0365 213.1063 15.31511647197180 SALSAT 1 46495U 20068K 24088.42555061 .00008859 00000-0 52368-3 0 9991 2 46495 97.8090 45.8223 0012860 224.0340 135.9866 15.11658232192104 AO-109 1 47311U 21002C 24088.37060986 .00374559 00000-0 14969-2 0 9996 2 47311 60.6659 18.2757 0019225 91.9814 268.3504 15.84980729178581 ExoCube 2 1 47319U 21002L 24088.80602850 .00293574 00000-0 15419-2 0 9992 2 47319 60.6643 21.4777 0021257 91.1714 269.1835 15.79270760178531 UVSQ-SAT 1 47438U 21006AB 24088.12873656 .00041521 00000-0 10629-2 0 9998 2 47438 97.3376 148.0239 0008361 145.0117 215.1680 15.39254842176232 YUSAT 1 1 47439U 21006AC 24088.43950072 .00079077 00000-0 14199-2 0 9994 2 47439 97.3357 151.3126 0007065 141.3964 218.7794 15.49587912176472 SOMP 2b 1 47445U 21006AJ 24088.39264858 .00036952 00000-0 10053-2 0 9996 2 47445 97.3341 146.9190 0008401 149.9342 210.2386 15.37402907176215 IDEASSat 1 47458U 21006AX 24088.11872643 .00032590 00000-0 94204-3 0 9992 2 47458 97.3443 147.3375 0008175 152.0823 208.0861 15.35537933176128 CubeSX-Sirius-HSE 1 47951U 21022V 24088.79617705 .00020067 00000-0 88016-3 0 9998 2 47951 97.4689 347.5580 0017331 64.9041 295.3991 15.21869808166337 CubeSX-HSE 1 47952U 21022W 24088.82083064 .00020245 00000-0 88541-3 0 9999 2 47952 97.4687 347.6607 0017219 64.3236 295.9776 15.21967291166345 KSU-Cubesat 1 47954U 21022Y 24088.22054490 .00023301 00000-0 95682-3 0 9996 2 47954 97.4697 348.0612 0016320 63.4432 296.8475 15.24088177166031 GRBAlpha 1 47959U 21022AD 24088.85613186 .00019910 00000-0 86820-3 0 9998 2 47959 97.4692 347.8304 0017090 64.4246 295.8754 15.22073526165178 Orbicraft-Zorkiy 1 47960U 21022AE 24088.87732711 .00023214 00000-0 96610-3 0 9998 2 47960 97.4730 348.8705 0016417 61.9245 298.3650 15.23636416165911 STECCO 1 47962U 21022AG 24088.85204582 .00069127 00000-0 16157-2 0 9998 2 47962 97.4699 355.6047 0009555 46.6859 313.5183 15.41876816165683 MO-110 1 47964U 21022AJ 24088.24774489 .00083523 00000-0 17777-2 0 9996 2 47964 97.4718 356.2693 0010271 42.8503 317.3543 15.44601511165663 TUBIN 1 48900U 21059X 24088.86792252 .00018292 00000-0 69145-3 0 9991 2 48900 97.6338 231.4146 0007257 12.1785 347.9627 15.27009674152653 LEDSAT 1 49069U 21073D 24088.44912427 .00017088 00000-0 75631-3 0 9995 2 49069 97.4442 160.2938 0020477 204.2990 155.7283 15.21539392144162 CUTE 1 49263U 21088D 24088.44427856 .00016478 00000-0 85279-3 0 9995 2 49263 97.5051 155.1518 0014479 6.0406 354.0998 15.16213701137398 TeikyoSat 4 1 49396U 21102B 24088.41418232 .00003928 00000-0 28968-3 0 9992 2 49396 97.4700 136.1726 0013531 186.8938 173.2104 15.03781227130617 Z-Sat 1 49399U 21102E 24088.84747730 .00004737 00000-0 31512-3 0 9998 2 49399 97.4416 137.9744 0021299 169.0381 191.1315 15.07430643130887 KOSEN 1 1 49402U 21102H 24088.57704889 .00006565 00000-0 40479-3 0 9994 2 49402 97.4339 138.8844 0020294 155.8090 204.4098 15.10099616130972 HO-113 1 50466U 21131B 24088.84660068 .00001263 00000-0 41960-3 0 9994 2 50466 98.5283 174.3060 0004256 22.7307 337.4068 14.39451933118448 Tevel-3 1 50988U 22002E 24088.83708742 .00073560 00000-0 14140-2 0 9990 2 50988 97.3882 161.9491 0004215 275.9897 84.0873 15.47668587122551 Tevel-8 1 50989U 22002F 24088.80683788 .00077250 00000-0 14905-2 0 9999 2 50989 97.3902 162.0053 0004186 274.6562 85.4210 15.47544824122549 Tevel-5 1 50998U 22002Q 24088.85323046 .00087577 00000-0 15334-2 0 9992 2 50998 97.3873 162.9240 0004953 266.8812 93.1873 15.50284900122626 Tevel-6 1 50999U 22002R 24088.85516931 .00085954 00000-0 15095-2 0 9991 2 50999 97.3870 162.9062 0004912 266.5770 93.4920 15.50206368122629 Tevel-1 1 51013U 22002AF 24088.79530920 .00076924 00000-0 14847-2 0 9997 2 51013 97.3873 161.7880 0003935 274.7642 85.3159 15.47537811122549 IRIS-A 1 51044U 22002BN 24088.46330189 .00019527 00000-0 71968-3 0 9994 2 51044 97.3924 155.4531 0005443 323.6216 36.4652 15.27838409122089 Tevel-7 1 51062U 22002CG 24088.79970208 .00077388 00000-0 14884-2 0 9994 2 51062 97.3894 161.9710 0004110 274.9629 85.1152 15.47637167122549 Tevel-4 1 51063U 22002CH 24088.82620027 .00074619 00000-0 14475-2 0 9990 2 51063 97.3891 161.9269 0004052 273.7340 86.3447 15.47400255122544 Tevel-2 1 51069U 22002CP 24088.83628346 .00075227 00000-0 14439-2 0 9995 2 51069 97.3880 161.9155 0004195 275.3855 84.6916 15.47704369122555 SO-115 1 51080U 22002DA 24088.45019259 .00152873 00000-0 17850-2 0 9996 2 51080 97.4155 169.1859 0005729 286.9856 73.0773 15.61091951122801 SO-114 1 51081U 22002DB 24088.02684808 .00162377 00000-0 17997-2 0 9990 2 51081 97.4161 168.9078 0005526 286.0109 74.0540 15.62417335122752 OreSat0 1 52017U 22026K 24088.51950634 .00049711 00000-0 11426-2 0 9990 2 52017 97.5036 99.8375 0016966 142.9449 217.2973 15.42364516113237 Planetum 1 1 52738U 22057G 24088.31144404 .00037817 00000-0 11454-2 0 9997 2 52738 97.5564 212.0651 0005180 79.8070 280.3756 15.34052317102145 Foresail-1 1 52766U 22057AL 24088.62062095 .00020808 00000-0 75832-3 0 9990 2 52766 97.5711 212.5295 0010336 57.9061 302.3180 15.28163641102136 SNUGLITE 2 1 52899U 22065F 24088.63123107 .00002524 00000-0 53044-3 0 9995 2 52899 98.1059 231.4163 0008440 51.2998 308.8956 14.60417279 92503 IO-117 1 53106U 22080B 24085.54373979 -.00000003 00000-0 00000-0 0 9997 2 53106 70.1376 221.5739 0008143 124.0321 236.1112 6.42557498 39894 SelfieSat 1 53951U 22057BC 24088.29279658 .00061175 00000-0 14400-2 0 9990 2 53951 97.5597 214.5099 0004591 62.6311 297.5402 15.41734644102275 FO-118 1 54684U 22167C 24088.82551050 .00027545 00000-0 11018-2 0 9999 2 54684 97.5945 232.1234 0010714 68.6539 291.5841 15.25007798 72031 SSS-2B 1 56184U 23054G 24088.85739414 .00033521 00000-0 99273-3 0 9998 2 56184 97.3788 346.5086 0010346 101.4139 258.8266 15.34748558 53794 CIRBE 1 56188U 23054L 24088.23267243 .00051126 00000-0 12177-2 0 9998 2 56188 97.3707 346.7856 0009027 94.8033 265.4244 15.41395297 53772 INSPIRE-Sat 7 1 56211U 23054AK 24088.43596891 .00051730 00000-0 11762-2 0 9991 2 56211 97.3754 348.0103 0012052 79.3675 280.8929 15.42754645 53861 RoseyCubesat 1 1 56212U 23054AL 24088.85733435 .00059897 00000-0 12687-2 0 9994 2 56212 97.3755 348.8433 0011960 76.9119 283.3464 15.44824684 53955 SO-120 1 56992U 23084BU 24088.76483122 .00026361 00000-0 11282-2 0 9997 2 56992 97.5220 207.6430 0013621 305.8220 54.1750 15.22701757 43920 MRC-100 1 56993U 23084BV 24088.88683193 .00030357 00000-0 12533-2 0 9991 2 56993 97.5220 207.9608 0013378 304.4433 55.5539 15.23892167 43962 UmKA 1 (RS40S) 1 57172U 23091G 24088.85421675 .00005724 00000-0 39197-3 0 9997 2 57172 97.6216 141.7457 0017918 40.2850 319.9700 15.06340665 41391 CubeBel-2 (EU11S) 1 57175U 23091K 24088.82947923 .00009431 00000-0 63848-3 0 9995 2 57175 97.6214 141.6131 0016314 51.6336 308.6354 15.06608388 41382 VERONIKA 1 58261U 23174F 24088.84613691 .00018222 00000-0 90755-3 0 9993 2 58261 97.4655 164.5722 0013770 161.2331 198.9413 15.17548039 21519 KAFASAT 1 58317U 23174BP 24088.81108236 .00022850 00000-0 10624-2 0 9994 2 58317 97.4604 164.8258 0012851 141.4081 218.8075 15.19901583 21530 ENSO 1 58470U 23185J 24088.84331612 .00016289 00000-0 75461-3 0 9995 2 58470 97.4343 156.5693 0013512 195.7286 164.3531 15.20090556 17926 EIRSAT-1 1 58472U 23185L 24088.83751577 .00017935 00000-0 82477-3 0 9996 2 58472 97.4336 156.5648 0013299 196.6930 163.3869 15.20326003 17920 SO-121 1 58567U 23174CY 24088.17368064 .00039337 00000-0 17489-2 0 9991 2 58567 97.4607 164.1665 0014821 155.8308 204.3626 15.21297073 21431 Clark sat-1 (AMBITIOUS) 1 58613U 98067WE 24088.65775270 .00520652 00000-0 19686-2 0 9996 2 58613 51.6287 344.3051 0006473 178.9946 181.1072 15.85777735 15896 SONATE-2 1 59112U 24043Q 24088.59097101 .00012070 00000-0 62359-3 0 9993 2 59112 97.4666 213.4993 0015409 212.0486 147.9811 15.16334519 3586 /EX
